Weather History for PALP - May, 2013

Change the Weather History Date:

Monday, May 27, 2013

  Actual Average Record
Temperature  
Mean Temperature 32 °F -  
Max Temperature 33 °F - - ()
Min Temperature 30 °F - - ()
Degree Days  
Heating Degree Days 34    
Moisture  
Dew Point 30 °F    
Average Humidity 90    
Maximum Humidity 93    
Minimum Humidity 81    
Precipitation  
Precipitation 0.00 in - - ()
Sea Level Pressure  
Sea Level Pressure 30.12 in    
Wind  
Wind Speed 8 mph (North)    
Max Wind Speed 12 mph    
Max Gust Speed -    
Visibility 4 miles    
Events      
T = Trace of Precipitation, MM = Missing Value Source: NWS Daily Summary

Daily Weather History Graph

Daily Weather History Graph

Search for Another Location

Airport or City:

Trip Planner

Search our weather history database for the weather conditions in past years. The results will help you decide how hot, cold, wet, or windy it might be!

Date:

Astronomy

Dec. 31, 1969 Rise Set
Actual Time Sun does not set Sun does not set
Civil Twilight Sun does not set Sun does not set
Nautical Twilight Sun does not set Sun does not set
Astronomical Twilight Sun does not set Sun does not set
Moon 3:27 AM AKDT (5/27) 5:24 AM AKDT (5/27)
Length of Visible Light 24h 00m
Length of Day
24h 00m
Waning Gibbous, 90% of the Moon is Illuminated
May 27
Waning Gibbous
May 31
Last Quarter
Jun 8
New
Jun 16
First Quarter
Jun 23
Full

Hourly Weather History & Observations

Time (AKDT) Temp. Windchill Dew Point Humidity Pressure Visibility Wind Dir Wind Speed Gust Speed Precip Events Conditions
3:45 AM 32.0 °F 23.6 °F 30.2 °F 93% 30.09 in 2.0 mi West 10.4 mph - N/A   Overcast
4:45 AM 30.2 °F 20.8 °F 28.4 °F 93% 30.10 in 3.0 mi West 11.5 mph - N/A   Overcast
5:51 AM 30.2 °F 22.6 °F 28.4 °F 93% 30.11 in 4.0 mi NW 8.1 mph - N/A   Overcast
6:58 AM 32.0 °F 24.8 °F 30.2 °F 93% 30.10 in 4.0 mi NW 8.1 mph - N/A   Overcast
8:16 AM 32.0 °F 25.6 °F 30.2 °F 93% 30.12 in 4.0 mi North 6.9 mph - N/A   Overcast
8:46 AM 32.0 °F 27.5 °F 30.2 °F 93% 30.12 in 4.0 mi North 4.6 mph - N/A   Overcast
9:49 AM 32.0 °F 26.4 °F 30.2 °F 93% 30.13 in 1.4 mi NW 5.8 mph - N/A   Overcast
10:15 AM 32.0 °F 26.4 °F 30.2 °F 93% 30.13 in 1.0 mi NNW 5.8 mph - N/A   Overcast
10:53 AM 32.0 °F 24.8 °F 30.2 °F 93% 30.13 in 4.0 mi North 8.1 mph - N/A   Overcast
12:46 PM 32.0 °F - 30.2 °F 93% 30.13 in 4.0 mi Calm Calm - N/A   Overcast
1:49 PM 33.8 °F 29.6 °F 30.2 °F 87% 30.13 in 5.0 mi NE 4.6 mph - N/A   Overcast
2:17 PM 33.8 °F 27.7 °F 30.2 °F 87% 30.14 in 7.0 mi NNE 6.9 mph - N/A   Overcast
2:49 PM 33.8 °F 26.4 °F 28.4 °F 81% 30.14 in 8.0 mi NE 9.2 mph - N/A   Overcast
3:46 PM 33.8 °F 27.0 °F 30.2 °F 87% 30.14 in 8.0 mi NNE 8.1 mph - N/A   Overcast
4:58 PM 33.8 °F 27.7 °F 30.2 °F 87% 30.13 in 7.0 mi NE 6.9 mph - N/A   Overcast
5:59 PM 33.8 °F 28.6 °F 30.2 °F 87% 30.13 in 7.0 mi NE 5.8 mph - N/A   Overcast
6:57 PM 32.0 °F 24.8 °F 28.4 °F 87% 30.13 in 5.0 mi NE 8.1 mph - N/A   Overcast
7:45 PM 32.0 °F 24.8 °F 28.4 °F 87% 30.12 in 5.0 mi NE 8.1 mph - N/A   Overcast
8:48 PM 32.0 °F 23.6 °F 28.4 °F 87% 30.12 in 3.0 mi NE 10.4 mph - N/A   Overcast